星链-37899(STARLINK-37899)

导读

暂未检索到STARLINK-37899(NORAD 69952)卫星的公开详细参数信息,该卫星属于美国太空探索技术公司(SpaceX)星链低轨通信星座序列,星链星座旨在通过大规模低轨卫星组网,为全球范围提供高速低延迟的互联网接入服务,已累计发射数千颗卫星,广泛应用于偏远地区通信、应急通信保障等场景。若需该卫星的发射时间、轨道参数、具体任务等细节信息,可后续通过航天跟踪平台的最新公开数据进一步查询。

基本信息
目录编号:
69952
目录名称:
STARLINK-37899
国际标识:
2026-157K
轨道中心:
EARTH
卫星名称:
星链-37899
卫星全名:
星链-37899(STARLINK-37899)
卫星状态:
在轨 (已飞行57 天)
发射日期:
2026-07-09 UTC
国别 :
美国 (US)
星等 :
--
轨道信息
数据来源 国际轨道数据 AOE轨道数据
星历时间 2026-09-04T08:48:51+0800
11小时前
查看轨道信息
2026-09-04T02:00:00+0800
18小时前
查看轨道信息
半长轴 6840.84km 6840.841km
偏心率 0.0000905 0.0001141
轨道倾角 53.160° 53.160°
近地点辐角 95.894° 64.478°
升交点赤经 50.783° 52.113°
平近点角 264.217° 166.443°
近地点 462.083km 461.923km
远地点 463.323km 463.485km
周期 93.848分钟 93.848分钟
每日圈数 15.344004 15.343999
详细信息
固有亮度:
5
最大亮度:
2.5
卫星平台:
Starlink V1.0
覆盖范围:
全球
运营商:
太空探索技术公司
运营商所在国:
美国
制造商(研发单位):
太空探索技术公司
制造商所在国:
美国
使用方式:
暂无
卫星简介
Starlink 计划是 SpaceX 推出的全球卫星互联网项目,通过发射低轨道卫星,为全球尤其是偏远地区提供高速、低延迟的互联网服务。自 2019 年起,Starlink 已部署数千颗卫星,旨在缩小全球数字鸿沟,推动互联网普及。该项目还为军事、航空等行业提供通信支持,带来广泛经济效益。
2D轨道图
3D轨道图
轨道高度分析图
轨道倾角分析图
轨道综合分析图
查看轨道综合分析图
交会数据列表
事件ID 空间交会对象 最接近时刻(TCA) 交会距离 交会风险概率(CRP) 交会风险指数(CRI) 操作
CDM_260906-015805-114106-995221
2026-09-06T
01:58:00+0000
0.871 km
远距离
3.72832E-5 中风险 0.66
CDM_260904-090106-593306-995221
2026-09-04T
09:01:33+0000
0.511 km
远距离
3.146465E-5 中风险 0.65
CDM_260904-081406-593306-995221
2026-09-04T
08:14:39+0000
1.016 km
极远距离
3.276657E-6 低风险 0.45
CDM_260901-052206-074606-995224
OBJECT B (60746)
2026-09-01T
05:22:54+0000
1.769 km
极远距离
2.522099E-6 低风险 0.43
CDM_260901-205205-085106-995221
2026-09-01T
20:52:58+0000
2.581 km
极远距离
7.646265E-7 极低风险 0.33
CDM_260901-200605-085106-995221
2026-09-01T
20:06:04+0000
2.728 km
极远距离
7.079535E-7 极低风险 0.32
CDM_260904-064006-593306-995221
2026-09-04T
06:40:51+0000
2.488 km
极远距离
3.417501E-7 极低风险 0.26
CDM_260904-072706-593306-995221
2026-09-04T
07:27:45+0000
2.790 km
极远距离
2.981319E-7 极低风险 0.24